Wind_Speed
17 19 20 18 19 19 19 19 17 18 21 21 22 18 17 14 12 11 10 10 10 10 9 10 12 12 13 13 11 12 13 14 13 14 14 14 13 13 12 12 13 12 13
23 20 19 18 19 19 18 19 18 19 20 22 20 17 15 11 10 10 9 8 9 10 9 10 11 12 13 12 12 12 12 13 13 13 14 11 12 14 14 12 12 13 13
21 21 19 20 20 19 20 19 18 18 18 19 19 17 13 11 10 10 10 9 8 8 8 10 11 12 12 12 13 13 14 15 12 13 12 10 10 11 12 11 12 12 13
22 20 19 21 20 20 20 20 19 17 17 17 16 14 13 11 10 11 10 8 9 9 10 10 11 11 12 12 13 13 14 12 11 11 10 9 10 10 12 10 11 12 12
21 21 20 20 19 19 20 19 19 18 17 17 15 14 13 12 11 9 9 9 9 9 9 11 11 10 12 11 12 13 12 11 10 10 11 8 10 9 12 12 12 12 11
19 18 20 20 20 20 18 19 18 18 17 16 16 14 13 13 12 9 8 10 10 9 9 10 10 11 10 11 13 11 12 10 10 8 9 7 8 11 10 11 10 11 10
16 18 17 19 18 19 20 18 18 18 17 14 14 14 12 14 11 9 8 6 7 8 9 8 9 11 11 11 13 12 12 10 8 7 8 7 7 9 10 8 10 11 9
15 15 15 16 16 17 17 20 17 16 17 16 13 13 13 12 9 7 7 6 6 7 7 8 9 10 11 12 12 12 9 7 6 7 7 7 8 9 9 8 9 10 10
13 14 13 14 14 15 16 17 17 16 15 16 15 13 12 11 10 9 7 7 7 6 7 8 9 10 10 11 11 10 9 8 5 8 8 7 8 9 11 9 10 9 10
12 12 13 15 14 15 15 15 15 16 16 14 14 14 12 11 9 8 8 6 7 8 7 8 9 9 11 11 11 10 9 7 5 5 8 8 8 9 10 10 10 9 9
11 12 12 16 17 15 15 15 15 15 15 14 13 12 11 9 9 8 9 9 7 6 7 8 8 10 11 11 11 11 10 7 6 5 9 12 11 10 12 11 11 10 10
12 12 15 15 15 15 15 14 13 13 13 13 12 11 11 10 10 9 8 8 6 7 6 6 9 9 9 9 10 11 11 10 7 6 5 11 12 10 11 11 11 13 12
13 13 16 10 14 12 13 15 14 13 13 12 12 11 10 9 8 8 8 7 8 7 6 5 6 8 10 10 11 12 12 11 10 9 7 9 13 14 11 11 12 13 12
13 12 13 13 12 10 7 18 16 16 16 12 13 12 12 10 9 9 9 9 9 9 8 7 7 7 7 9 10 11 12 11 12 11 11 11 11 14 15 12 12 11 13
12 12 12 13 11 14 13 13 19 17 16 13 13 14 14 13 12 10 11 10 8 10 9 9 8 7 7 8 9 10 11 13 13 13 12 15 13 12 16 15 13 13 13
12 14 13 12 8 6 9 11 16 16 14 14 14 15 16 15 15 14 16 17 11 10 10 9 9 8 8 8 9 10 11 11 12 13 13 14 15 13 12 15 14 15 15
12 11 12 9 5 4 8 11 16 15 14 15 16 16 17 17 14 15 17 19 14 11 12 12 10 9 8 8 9 9 11 13 12 14 14 14 15 17 16 15 15 14 16
11 14 13 9 6 3 6 11 8 14 18 17 19 18 19 18 18 16 20 15 15 14 12 11 10 10 9 10 10 11 11 13 13 14 15 15 15 15 15 19 18 17 16
10 12 14 12 8 6 8 8 11 13 15 16 17 20 22 20 20 20 21 20 16 15 14 12 11 12 11 12 12 11 12 13 13 14 16 15 14 13 13 15 16 17 17
6 11 9 11 10 5 6 8 8 9 9 8 11 14 13 20 21 15 17 21 19 17 16 14 14 12 13 13 12 13 12 12 10 11 13 14 14 14 14 15 16 14 19
6 9 10 10 7 5 3 4 7 6 4 5 7 8 9 14 19 21 17 16 17 17 16 16 14 14 15 14 12 11 10 8 9 7 13 13 12 12 14 16 15 11 12
8 9 11 11 9 8 5 5 3 3 2 5 9 10 9 8 13 15 15 16 19 15 17 17 16 13 11 14 8 8 3 4 4 1 3 5 7 8 10 10 10 12 10
10 9 11 13 12 12 8 5 5 3 3 5 7 9 10 14 12 11 13 14 14 16 19 19 17 17 15 12 15 6 2 4 4 1 3 2 1 3 4 4 4 7 9
8 10 11 13 12 13 11 8 6 4 4 4 7 7 8 10 11 12 10 12 13 15 15 17 17 18 17 15 10 14 7 1 3 3 3 4 3 3 2 2 1 1 1
7 10 10 10 13 14 12 10 7 5 4 6 5 7 7 7 5 3 1 6 7 6 7 11 11 8 11 13 11 5 9 8 5 4 3 4 4 4 2 1 3 4 4
9 10 9 10 12 14 13 12 10 7 5 5 6 4 5 5 3 3 5 8 7 8 9 9 11 11 11 11 11 12 10 6 10 10 3 3 5 5 6 6 7 7 9
Wind_Direction
155 159 158 155 147 146 147 140 139 148 159 162 159 153 153 149 146 146 145 145 144 143 135 125 121 121 128 125 123 124 122 123 122 124 122 120 120 123 122 121 113 117 117
151 156 160 154 149 145 146 148 147 147 154 162 163 160 155 149 147 145 141 146 152 147 140 135 132 130 128 129 132 133 133 129 129 128 123 118 124 121 124 122 115 125 116
150 154 157 154 151 150 149 149 151 151 150 158 162 162 159 149 150 151 152 154 151 154 139 137 132 130 133 134 137 136 132 130 128 129 129 117 126 123 122 124 119 123 122
152 154 158 159 158 157 155 155 153 151 152 158 161 157 151 154 149 152 156 158 154 148 147 136 132 135 135 138 145 140 139 135 134 137 126 120 128 129 128 130 130 133 127
154 156 161 161 162 160 161 163 160 157 155 156 155 149 153 151 151 157 166 166 158 157 145 143 137 140 143 144 145 143 143 139 146 126 140 128 132 140 139 136 139 132 128
155 157 163 164 164 161 167 168 168 166 162 160 158 161 164 158 153 165 164 168 164 151 154 148 143 149 146 147 144 148 150 144 137 134 139 154 141 160 147 147 147 151 148
158 158 167 167 167 168 168 173 178 173 167 174 171 166 161 156 153 152 158 165 162 161 160 151 152 151 154 155 153 155 152 155 153 147 153 159 158 162 162 155 158 162 156
159 162 169 175 170 175 175 175 183 185 177 178 178 176 174 174 172 167 177 171 165 161 159 156 159 159 161 161 163 162 167 170 181 179 174 171 182 164 169 172 171 171 166
162 163 169 174 178 178 182 184 183 187 192 186 181 183 182 179 181 184 188 185 192 172 164 171 171 173 174 175 176 176 170 176 174 189 186 185 189 175 182 185 178 186 181
166 171 172 177 178 182 189 192 193 187 193 198 189 191 189 185 187 190 198 198 194 195 184 182 182 186 184 191 195 194 188 193 187 185 197 199 199 191 195 196 194 197 196
173 178 186 190 188 188 192 191 195 196 198 197 200 192 196 192 197 198 201 198 192 202 190 189 198 195 198 201 207 206 206 213 213 230 216 213 204 203 202 211 207 210 213
180 189 197 203 199 201 209 199 192 194 199 198 202 200 198 202 200 195 200 206 204 211 210 192 191 203 207 208 217 216 220 224 225 225 225 211 212 217 212 220 218 213 218
188 196 206 205 206 212 215 219 201 191 198 196 201 205 207 209 208 204 211 208 206 216 205 203 191 196 208 210 216 215 226 229 232 229 236 231 227 226 224 227 228 225 224
192 205 212 222 229 213 221 222 216 203 201 203 204 207 212 209 215 214 220 221 216 212 209 209 202 198 197 207 217 225 228 231 235 241 240 241 238 239 234 234 238 233 230
202 219 220 235 248 253 242 223 210 208 203 209 216 220 219 221 220 220 228 226 220 220 218 219 215 210 211 211 218 222 233 238 241 247 250 245 243 246 245 241 239 238 251
211 216 221 238 263 253 220 207 204 207 200 209 225 228 228 226 226 230 235 234 227 218 221 221 224 221 222 221 223 227 232 239 243 243 249 251 239 242 246 239 244 239 249
216 212 219 232 263 186 208 213 215 211 216 217 220 225 237 234 230 234 247 243 225 218 221 225 227 227 230 236 237 239 242 243 247 246 247 248 248 251 244 246 245 249 247
222 220 221 230 221 220 233 219 247 228 237 239 234 231 230 229 226 238 248 239 228 229 219 225 222 229 235 246 257 259 250 244 250 245 245 244 248 250 257 252 246 246 246
232 231 215 215 210 250 275 254 260 258 254 254 250 245 247 226 226 228 234 234 232 214 214 224 234 237 249 258 262 267 256 248 250 250 246 244 244 249 251 260 244 243 245
205 209 222 219 211 248 262 268 267 264 257 246 247 237 222 209 214 234 234 221 222 221 223 229 235 240 250 262 269 266 260 246 249 248 249 251 252 251 253 256 257 254 245
165 207 218 201 203 190 199 257 272 272 254 201 189 195 199 210 215 225 223 220 220 224 227 231 238 248 256 257 269 247 236 243 241 249 254 255 255 257 251 253 255 246 251
174 189 207 205 210 202 220 248 257 254 207 153 159 161 172 177 182 204 219 227 232 229 230 230 232 238 248 258 209 244 209 193 200 254 291 262 257 255 250 252 251 247 250
178 185 210 204 208 217 201 198 179 151 171 176 162 170 189 213 207 223 228 231 240 237 234 229 231 232 240 222 226 253 197 236 177 168 43 13 304 242 227 228 228 239 248
193 182 201 200 212 226 209 194 208 225 188 210 164 163 184 199 211 230 232 239 244 238 234 234 237 230 231 219 213 233 242 185 215 184 133 79 75 76 50 102 96 59 279
185 194 199 193 206 222 219 214 214 252 256 163 155 152 150 155 178 181 352 271 255 240 229 227 230 232 244 235 220 199 214 223 230 234 185 161 75 75 125 91 87 85 106
178 192 205 190 210 219 220 220 220 239 211 184 178 175 162 164 163 207 213 249 254 251 243 243 239 233 236 237 237 232 220 202 214 216 184 131 125 65 128 134 136 133 128
Height
803 805 805 806 808 810 811 812 815 816 818 820 822 824 827 828 829 830 831 833 834 835 836 836 836 837 837 839 840 840 841 843 843 844 844 845 846 847 848 848 848 850 850
800 805 809 809 810 810 812 813 815 817 819 821 823 825 827 829 830 832 833 835 836 837 837 837 837 838 839 840 841 842 843 844 845 846 847 848 849 850 850 851 851 852 852
803 805 809 810 811 811 813 816 817 819 821 822 824 826 827 830 832 833 835 836 837 838 839 839 839 840 840 841 842 843 844 846 847 847 849 850 852 852 852 853 854 853 854
802 807 810 810 812 812 814 816 818 821 823 824 825 827 830 831 833 834 837 837 838 839 840 841 841 842 842 843 844 845 846 847 849 849 851 852 853 854 854 854 855 856 856
801 804 809 812 812 815 816 817 819 822 824 825 827 829 830 832 834 836 837 838 839 840 841 842 843 844 845 845 846 847 848 849 850 851 853 854 854 854 855 855 855 857 858
802 807 808 811 813 814 818 820 821 822 824 826 828 829 831 832 834 836 838 839 840 841 842 843 844 844 845 847 848 849 850 851 852 854 855 855 856 855 855 856 857 858 858
805 807 810 812 813 814 815 820 822 822 824 826 828 829 831 833 835 836 838 840 841 842 843 844 845 846 847 848 850 850 851 852 854 854 855 856 857 856 857 857 858 859 859
806 809 810 813 814 815 816 816 821 824 825 825 829 830 832 834 835 836 838 840 843 843 844 845 846 847 848 849 851 852 853 854 854 855 856 857 857 857 858 859 859 859 860
807 808 811 813 815 816 817 819 819 823 826 825 827 829 832 833 835 837 838 840 842 843 844 846 847 848 849 851 852 853 854 854 855 855 856 857 856 857 859 859 860 860 860
808 809 811 811 813 815 816 818 820 821 823 826 827 829 831 834 836 837 837 839 841 842 844 845 847 849 850 851 853 853 854 855 856 856 856 856 856 857 859 859 859 860 861
809 810 810 810 811 813 815 817 818 821 822 826 827 828 831 834 836 837 838 839 841 842 843 845 847 848 850 851 853 854 855 856 855 855 855 854 855 856 858 859 859 860 861
807 809 808 809 810 811 814 815 817 820 822 823 826 828 829 833 835 837 838 838 840 842 843 844 846 848 850 852 853 854 855 855 855 855 855 854 855 855 857 858 858 859 860
805 806 805 810 808 811 813 816 816 817 820 822 825 827 829 832 833 835 838 839 840 841 843 844 845 847 848 851 852 853 853 854 854 854 854 854 854 854 855 856 857 858 859
804 804 804 805 806 809 810 813 815 817 818 821 824 826 828 830 832 834 836 838 839 839 842 844 845 845 847 847 849 851 852 853 853 853 853 852 853 854 854 854 855 856 857
803 804 805 805 807 806 808 811 813 815 816 819 822 825 826 828 830 832 834 836 838 839 841 842 843 843 844 845 846 848 850 851 851 851 851 851 851 852 853 853 855 855 855
799 800 803 803 805 804 806 809 811 813 814 817 820 822 825 826 827 828 832 834 836 837 839 840 841 842 843 843 843 845 847 848 848 848 849 849 849 849 850 851 851 852 852
798 801 802 802 801 803 805 808 808 809 812 815 817 820 822 824 825 826 829 831 835 835 837 838 839 840 840 841 841 843 844 845 846 845 846 846 847 847 847 848 847 849 851
799 799 801 802 802 803 805 806 807 808 809 811 812 816 818 821 822 824 826 830 833 833 835 837 837 838 839 839 840 840 840 840 841 842 842 843 844 844 844 844 845 845 847
800 801 801 802 802 804 805 806 805 806 806 807 809 810 813 816 819 822 824 827 829 830 832 834 835 836 836 836 836 836 837 837 837 838 839 839 840 840 841 841 840 842 843
798 800 802 802 803 804 805 806 806 805 804 804 805 807 809 813 815 819 821 824 826 827 829 830 832 833 833 834 834 834 834 834 834 835 836 837 837 837 837 837 838 839 838
793 800 801 802 803 804 806 807 806 806 803 801 802 805 808 810 812 817 818 821 823 825 827 828 829 830 831 831 831 830 831 831 831 831 831 831 834 834 833 833 832 834 835
790 794 798 800 803 802 804 804 805 806 804 802 801 803 805 809 812 814 816 817 820 821 823 825 826 827 827 825 826 827 827 829 829 829 829 829 830 831 831 830 830 830 831
786 791 796 797 800 803 802 804 804 804 806 805 802 803 804 807 810 811 814 815 817 818 819 820 822 823 823 822 824 826 825 821 826 828 828 827 827 828 828 827 827 827 827
785 788 792 793 798 801 802 802 804 804 803 804 802 801 803 806 807 810 810 811 813 813 814 815 817 818 818 818 821 822 822 823 821 826 828 827 827 827 828 827 826 827 827
782 786 789 790 793 798 801 799 801 802 803 802 803 804 804 805 806 807 809 809 809 809 809 810 813 814 815 817 817 819 820 821 821 820 823 826 827 827 827 828 827 828 828
780 783 786 785 790 795 796 797 798 800 802 802 803 804 805 806 806 806 806 808 808 808 809 811 812 812 814 815 815 816 815 816 817 819 819 824 827 829 828 827 827 828 829